GFSSW_500_rhum_054.txt.gz
RH
23 18 10 6 5 5 13 29 44 95 54 40 38 35 24 17 19 20 21 19 13 9 8 10 12 15 15 14 14 14 9 6 8 10 12 14 14 10 8 12 13 11 14 12 10
26 24 20 12 8 6 5 7 28 39 94 64 43 38 34 27 22 11 21 21 17 14 9 7 9 12 13 13 12 10 8 7 11 11 12 13 13 12 8 11 12 9 12 9 12
16 26 23 19 14 12 7 6 5 16 42 84 49 35 36 33 30 27 19 20 18 19 15 9 7 8 11 12 11 10 7 8 11 13 10 11 10 9 10 9 12 10 10 10 11
16 18 22 26 20 17 15 10 6 5 17 44 72 55 42 35 29 32 27 23 21 20 16 13 7 6 7 10 10 9 7 8 12 13 8 10 10 9 9 10 11 9 8 7 9
17 17 19 22 27 24 21 18 12 7 5 9 46 74 60 44 36 30 32 30 23 19 19 15 10 7 6 7 8 7 8 11 14 12 9 11 11 9 9 10 14 11 9 8 6
13 16 20 21 24 26 25 22 20 13 8 5 12 49 75 50 37 31 28 27 28 24 18 16 12 8 6 6 6 7 10 13 13 12 10 11 11 9 9 14 14 11 8 7 6
13 13 14 16 15 18 21 22 20 16 11 8 4 30 48 50 46 32 26 23 23 23 19 16 14 10 8 9 8 11 15 17 14 14 13 12 9 7 11 14 11 10 10 10 9
22 21 18 15 14 12 10 14 16 16 12 9 6 6 43 50 44 30 27 23 20 19 21 20 15 10 10 9 15 20 16 17 18 16 14 12 8 10 9 11 10 11 11 12 12
20 18 17 15 12 10 10 9 9 12 11 8 9 5 32 48 47 29 26 25 22 21 21 23 22 16 12 14 23 23 17 16 16 16 14 11 9 14 9 11 9 10 10 10 11
17 11 4 2 2 2 2 2 4 8 8 7 41 7 11 46 48 30 28 25 26 27 59 28 20 17 15 15 21 26 20 15 15 17 17 11 9 14 11 13 11 12 12 12 13
5 2 2 4 9 13 10 3 3 3 5 26 39 14 13 46 50 33 29 28 26 30 28 28 25 20 31 26 26 18 16 14 17 23 19 12 10 12 12 12 13 12 14 14 12
3 4 12 25 63 100 98 8 6 9 11 68 100 73 18 55 71 35 30 25 26 33 35 32 29 61 45 28 29 22 22 24 31 28 17 17 11 10 14 12 10 11 9 9 10
5 18 27 93 97 95 79 91 21 8 80 100 100 42 84 56 85 38 32 30 38 42 36 52 62 65 55 62 54 44 38 39 30 25 23 16 10 11 9 9 10 11 12 11 11
12 37 72 92 100 100 90 100 15 16 100 100 90 89 84 66 91 38 32 29 35 42 47 60 60 58 59 68 56 48 38 37 30 27 23 16 9 9 9 10 11 11 12 12 12
23 65 87 97 96 100 100 100 7 100 99 93 100 99 100 88 90 34 31 25 30 38 44 63 70 78 66 60 49 40 36 29 24 19 15 12 9 5 7 9 10 14 15 15 14
48 79 98 100 93 80 96 60 7 100 100 92 100 99 97 76 88 33 30 27 31 28 36 39 49 49 42 35 30 26 22 18 15 12 10 9 8 5 6 10 15 16 14 12 11
61 77 99 67 98 93 64 29 57 87 100 99 97 76 100 79 85 30 29 25 25 27 29 36 39 32 26 21 18 17 16 14 12 10 8 7 7 9 16 16 17 17 13 9 10
95 81 90 100 97 87 59 77 99 100 100 100 100 90 95 86 94 38 29 26 25 31 33 30 26 24 22 20 18 17 17 14 11 10 13 16 15 13 15 16 18 27 21 15 13
77 86 68 60 91 99 56 95 82 100 100 100 100 100 100 91 95 49 27 31 26 26 28 26 23 22 21 20 18 19 18 18 18 17 15 16 15 12 14 14 21 26 21 15 14
81 97 93 90 99 59 51 90 100 100 100 100 100 80 81 74 94 63 27 25 27 29 24 22 23 22 20 19 18 18 24 23 27 24 20 16 15 13 17 29 24 20 18 12 17
91 73 100 72 80 20 46 99 100 100 100 100 100 94 76 73 84 68 47 28 25 28 24 25 23 25 25 26 24 30 34 30 22 21 17 12 11 24 24 20 18 14 21 37 30
100 94 66 16 36 22 80 100 100 100 100 100 100 95 98 67 76 63 59 54 48 44 36 43 37 43 41 39 36 33 25 20 19 18 14 21 14 40 50 57 55 42 34 46 61
98 74 27 50 17 65 100 100 100 100 100 98 100 100 77 55 68 58 42 44 44 42 40 38 37 37 36 32 26 21 18 19 17 18 26 20 51 43 40 40 36 35 46 44 49
95 71 100 22 49 98 100 100 100 100 100 100 99 99 80 58 64 52 40 37 33 31 31 29 32 31 22 17 17 15 17 16 18 24 31 70 61 63 60 32 29 46 52 52 48
68 77 60 49 100 100 94 100 100 100 100 100 99 99 95 60 55 54 48 42 35 31 27 25 29 23 20 16 12 12 18 20 25 40 54 81 40 47 33 23 26 52 62 80 60
95 51 56 100 100 100 99 100 100 98 100 100 100 90 89 82 79 75 56 41 33 28 24 22 21 17 15 13 14 16 30 30 39 66 62 67 79 26 26 30 41 63 59 73 65
72 24 65 95 99 100 100 100 100 100 100 97 87 79 68 59 49 49 53 56 45 32 24 20 16 14 17 17 15 30 42 39 74 73 74 65 65 56 52 62 84 62 91 78 79

GFSSW_500_rhum_057.txt.gz
RH
15 15 15 17 20 22 14 8 6 5 26 44 72 31 43 30 21 28 24 24 17 15 12 12 17 17 16 16 15 15 10 8 8 9 11 14 12 11 9 8 11 12 11 10 9
21 18 16 16 16 19 21 16 11 6 5 19 63 59 40 42 28 18 36 24 21 18 17 11 11 16 16 18 15 14 10 9 12 12 14 15 12 10 8 7 8 12 13 11 11
24 21 17 15 15 17 19 21 18 14 7 5 10 81 73 42 38 35 23 26 26 22 19 17 11 10 13 16 15 13 10 13 14 16 14 11 10 8 7 6 8 12 11 10 10
20 19 18 17 14 14 16 20 22 20 16 9 6 17 84 55 30 35 33 26 22 26 23 19 17 10 8 11 14 13 13 14 14 13 10 10 11 8 7 8 9 12 10 7 8
22 18 14 15 18 19 18 18 24 25 23 17 11 5 24 79 42 31 34 37 29 24 21 24 21 16 10 8 10 11 13 13 12 12 7 7 10 9 7 8 9 11 10 9 7
18 17 14 12 11 12 17 21 23 29 28 24 19 9 6 37 71 38 33 32 31 27 25 23 23 20 15 9 7 8 10 10 10 10 6 7 11 9 7 9 12 11 10 9 8
19 18 14 12 10 10 12 14 25 27 31 29 23 17 7 16 57 64 38 33 30 33 28 25 25 22 17 13 8 6 7 8 10 10 8 12 11 6 9 10 10 9 9 7 8
23 16 14 11 8 6 6 10 14 25 27 26 19 20 10 20 40 82 53 36 30 29 32 29 24 22 19 15 12 8 6 7 12 12 9 12 8 10 11 9 8 9 9 7 9
21 14 9 4 5 6 5 3 3 14 23 21 17 17 13 10 25 53 93 41 32 28 43 27 32 52 26 17 14 10 7 8 16 14 14 11 8 10 11 8 8 8 7 7 8
16 10 5 8 9 10 10 8 3 2 17 20 19 16 16 14 19 51 70 63 32 35 54 32 24 50 41 25 17 13 10 11 14 17 13 11 8 10 12 8 9 9 9 9 10
12 6 10 12 20 55 82 62 20 4 3 12 16 15 19 17 9 46 55 39 33 41 36 38 32 29 32 45 72 20 11 13 19 16 13 12 9 11 14 10 11 12 13 11 11
6 10 16 36 78 99 84 100 83 32 3 11 40 35 18 74 28 50 55 42 31 32 28 36 45 50 58 47 30 14 12 16 25 19 13 13 10 11 15 13 14 14 12 13 13
8 14 52 55 98 100 76 100 94 42 6 80 100 86 68 76 48 58 52 41 37 34 31 40 98 76 37 26 32 22 16 17 18 18 16 12 9 13 16 16 16 15 14 13 12
13 25 62 77 95 87 98 100 95 40 11 100 80 100 86 98 53 61 55 44 35 32 35 40 35 36 40 43 40 39 32 28 22 22 15 14 9 16 19 17 16 15 13 10 9
37 58 78 91 80 74 75 97 87 18 28 100 100 100 100 92 59 47 68 52 30 28 34 45 44 50 51 64 56 50 59 62 46 29 24 20 15 17 19 17 13 12 11 10 10
45 63 81 100 73 99 70 81 21 22 74 100 100 100 98 99 90 68 77 44 34 31 43 50 72 74 64 63 60 72 69 56 46 36 25 25 19 16 16 12 11 10 9 9 10
66 66 84 79 97 87 76 45 15 89 100 100 100 100 92 60 64 65 80 37 29 28 33 52 71 85 74 72 68 61 50 38 31 26 21 18 16 13 10 8 7 7 9 13 14
74 84 99 69 57 81 26 26 35 100 100 75 100 100 99 100 98 79 51 35 34 38 46 52 51 57 58 52 40 31 26 21 17 14 13 12 10 9 8 10 12 16 15 13 12
73 90 80 67 85 22 26 79 86 100 100 100 100 100 96 100 84 94 38 35 37 43 45 44 42 38 34 30 26 22 20 16 16 13 10 10 9 12 12 17 19 16 14 12 10
60 75 78 69 58 19 23 84 100 100 100 100 98 99 99 97 81 81 31 32 34 37 36 36 34 28 24 22 22 21 23 21 20 15 13 13 15 19 17 15 12 10 9 9 13
67 65 24 23 30 38 80 100 100 100 100 100 85 82 97 95 96 80 46 31 34 31 29 30 28 26 24 24 23 23 23 23 21 21 18 16 14 18 14 10 9 9 11 21 28
41 37 10 25 22 78 100 100 100 100 100 100 100 92 88 100 100 97 60 31 30 26 25 25 26 29 26 23 26 26 29 29 30 22 18 13 18 18 12 10 13 27 34 30 40
20 30 22 26 71 100 100 100 100 100 100 100 91 94 82 94 94 92 62 40 27 23 26 28 29 34 29 32 37 39 35 29 20 15 14 12 30 26 31 37 48 32 26 24 52
18 19 23 37 90 100 100 100 100 100 100 100 96 75 62 84 75 88 64 60 44 34 40 33 40 39 35 36 34 30 21 18 14 12 14 27 45 52 49 47 38 31 29 49 52
20 8 23 63 100 100 100 100 100 100 100 100 100 91 79 61 63 76 48 47 50 48 41 37 33 30 27 24 18 15 15 11 9 21 20 64 58 62 48 37 38 35 54 67 50
28 13 75 95 99 92 100 100 100 100 100 100 100 90 63 62 66 58 45 42 40 36 33 31 35 26 22 14 12 11 11 11 25 28 30 61 72 56 48 33 71 71 54 53 70
36 87 97 99 100 99 96 99 100 99 100 96 97 100 94 76 67 64 59 52 44 39 33 28 24 21 20 15 13 15 15 26 34 52 56 64 66 71 87 83 76 76 72 67 83

GFSSW_500_rhum_063.txt.gz
RH
61 45 36 34 35 32 24 16 14 17 20 15 13 13 18 7 17 36 46 58 72 28 28 29 21 24 23 20 24 29 24 16 15 19 19 13 9 7 6 6 5 5 6 5 5
58 41 37 33 34 36 31 24 18 15 14 18 15 13 15 18 7 28 75 58 81 55 27 30 28 21 24 20 16 16 17 17 20 20 14 12 8 7 7 7 6 6 7 6 6
65 48 35 34 36 36 36 30 27 23 18 17 16 15 14 16 16 8 43 73 88 61 34 32 32 24 19 23 17 13 12 13 15 15 16 14 11 9 9 8 6 6 7 6 6
59 45 33 26 32 32 28 25 29 26 24 24 20 16 18 15 16 11 14 82 70 96 40 37 31 28 18 17 19 15 10 11 14 18 17 17 13 10 8 8 7 6 7 7 7
53 34 28 30 31 25 19 16 15 17 22 22 24 23 24 16 13 17 10 67 92 80 54 41 33 30 26 17 17 19 14 14 18 19 17 15 13 10 9 10 6 6 6 8 9
44 37 33 30 26 18 13 12 9 8 9 16 22 28 24 16 14 23 11 26 92 75 98 43 38 32 30 25 17 15 20 21 22 19 16 14 13 12 10 11 8 9 8 8 8
49 37 33 28 18 13 11 10 9 8 8 8 14 42 29 14 17 25 19 12 87 78 91 58 46 41 30 27 22 15 14 18 21 19 15 14 12 10 12 13 11 9 9 8 7
50 40 32 20 14 11 12 11 18 23 16 10 11 24 35 18 30 28 23 21 79 99 97 72 45 46 38 29 25 21 15 12 13 18 18 17 10 11 11 13 13 11 8 7 6
55 39 23 15 12 17 23 28 66 91 84 81 16 10 34 34 30 34 29 35 73 99 100 98 73 66 44 36 27 23 17 14 13 11 13 14 11 13 12 13 12 10 7 8 8
54 31 18 13 26 37 39 61 90 100 98 87 65 14 24 40 42 39 55 51 68 98 100 99 95 79 71 39 27 22 20 18 17 14 10 9 9 11 12 12 10 11 8 7 10
44 23 15 27 63 57 56 92 96 91 88 100 47 11 32 48 45 38 100 70 77 97 100 97 100 78 59 49 37 30 26 24 22 18 12 8 7 8 9 10 10 10 9 8 9
32 17 21 50 75 82 70 69 69 69 99 84 34 13 39 57 41 38 100 93 54 96 96 98 98 96 87 99 67 34 26 28 25 20 14 11 6 6 6 7 9 9 8 10 10
23 14 28 58 91 100 86 59 65 66 98 69 20 35 57 98 38 33 100 94 58 99 97 97 87 97 98 99 84 65 45 42 28 22 18 15 9 8 8 5 6 8 10 11 12
17 16 38 54 100 100 100 99 70 62 57 17 86 100 85 90 43 46 89 93 62 99 100 96 96 100 98 99 99 100 100 100 82 43 18 16 11 12 11 8 8 10 11 12 12
13 26 64 85 100 98 75 96 75 46 17 83 100 93 76 73 91 100 87 97 81 99 95 92 98 96 95 97 98 96 99 77 57 39 34 29 18 15 12 11 14 14 12 11 11
15 39 43 84 100 72 73 69 42 44 28 100 100 100 100 51 69 100 77 80 93 100 100 90 97 90 91 95 86 58 41 43 40 39 35 29 22 19 16 15 14 14 13 11 11
17 22 14 62 62 32 27 41 58 87 88 60 93 85 98 98 65 64 44 66 82 88 88 87 67 86 100 99 86 70 54 39 32 30 29 27 22 34 19 15 17 17 16 15 16
10 5 7 61 16 11 55 97 100 100 100 100 91 76 100 99 90 44 40 55 95 87 80 75 66 56 85 87 94 82 40 34 28 28 30 38 27 29 24 20 20 23 25 24 23
6 8 34 25 36 60 84 94 98 100 85 100 97 54 71 84 75 60 74 79 86 94 73 48 43 53 50 40 36 38 37 49 42 44 45 38 35 36 32 26 21 20 20 19 17
9 24 54 70 81 94 100 100 100 96 100 100 98 76 76 88 74 74 73 62 68 89 67 44 40 48 52 49 47 49 71 68 63 55 45 34 30 23 22 19 17 15 14 12 12
12 40 66 83 89 97 97 84 98 99 88 89 71 73 73 83 82 67 59 67 85 57 40 48 53 59 68 80 87 83 81 62 47 37 29 22 21 22 23 21 18 17 16 15 13
21 36 72 86 69 65 91 99 82 45 95 66 83 100 100 98 98 81 81 83 78 43 45 51 56 63 66 66 66 60 47 37 29 25 21 22 26 25 22 19 16 15 12 11 10
33 59 90 95 98 100 63 54 91 96 95 89 96 100 84 90 100 95 97 60 46 46 53 52 54 49 46 41 38 33 29 28 27 25 25 30 24 19 17 14 12 10 9 9 9
58 71 70 70 59 72 70 49 68 73 84 88 100 96 94 94 99 100 67 40 43 42 44 46 43 38 33 31 32 31 30 31 27 29 30 23 18 14 12 10 13 14 25 33 28
58 76 62 48 53 73 76 52 69 56 67 78 91 93 100 100 100 92 39 37 36 35 36 34 33 30 30 31 32 36 37 34 33 27 19 18 17 11 11 22 37 43 36 24 17
62 68 47 38 73 96 91 77 48 46 53 72 79 74 99 100 100 95 81 49 33 31 31 31 31 31 33 36 37 36 32 24 17 14 12 11 17 13 20 34 54 42 39 39 39
45 59 61 71 70 82 82 94 100 97 53 63 75 87 83 94 97 81 74 47 37 29 27 30 37 40 40 35 30 28 18 15 13 13 13 17 30 27 52 62 51 50 51 44 47

GFSSW_500_rhum_066.txt.gz
RH
89 91 78 68 66 56 45 36 34 34 33 27 19 16 14 13 11 12 15 30 49 58 73 60 35 32 24 28 46 46 34 23 19 20 20 27 25 30 22 15 12 10 7 6 6
95 86 68 67 67 60 46 40 41 40 36 32 27 20 16 14 11 11 14 9 32 58 61 70 45 32 27 24 23 40 30 23 23 22 23 28 27 25 20 15 11 9 6 6 6
94 72 72 74 69 51 45 43 39 37 31 28 26 25 22 18 14 9 17 13 16 47 70 76 57 34 32 25 22 20 26 29 30 31 29 33 29 22 18 14 10 8 7 8 8
88 79 82 75 59 64 47 38 34 27 22 22 22 25 26 25 18 13 17 16 9 31 68 91 76 36 30 27 21 20 18 24 27 32 36 41 29 19 16 12 9 7 6 8 8
98 97 93 85 80 76 55 41 31 20 14 12 11 14 28 24 18 18 17 19 15 10 66 80 93 57 30 28 23 18 19 19 18 20 23 28 23 17 13 10 8 8 7 8 9
99 96 94 94 89 69 43 26 15 11 9 9 10 13 19 27 21 28 23 18 19 12 52 83 91 60 39 33 30 20 20 20 20 22 20 18 16 14 12 11 10 9 9 8 12
96 96 100 100 80 42 22 13 13 14 14 14 14 13 12 15 41 37 30 21 22 15 19 88 93 92 44 35 31 26 19 20 24 24 19 16 13 10 14 16 12 11 10 9 8
84 100 100 78 41 22 14 20 37 33 32 52 99 100 15 14 26 42 36 28 24 17 18 97 91 97 51 41 32 29 22 16 20 24 19 16 12 11 14 15 14 14 13 9 7
99 100 87 49 23 15 27 54 75 51 84 84 89 100 61 16 15 46 39 35 29 25 18 90 96 99 76 47 35 30 23 17 16 19 23 17 13 13 15 15 15 15 12 10 7
100 99 61 28 18 27 65 86 85 64 67 84 90 98 68 30 24 54 47 34 33 40 40 98 99 99 99 70 35 25 22 21 18 16 16 18 13 14 14 14 14 14 13 11 10
100 82 33 18 33 52 77 100 86 67 74 63 96 76 70 28 46 56 51 47 38 49 98 95 97 76 67 56 35 32 29 27 26 23 16 13 12 14 15 14 13 13 15 16 13
97 45 18 24 64 86 97 100 95 91 47 73 80 88 66 33 64 57 58 98 37 25 82 100 94 100 95 75 49 39 33 29 27 24 20 14 10 10 11 12 13 13 13 13 13
69 22 18 42 90 100 100 100 95 100 76 66 67 66 97 50 65 52 100 80 36 32 98 99 99 99 100 90 70 51 42 37 30 26 22 18 13 13 12 9 8 9 10 10 10
33 16 18 27 53 100 100 77 82 87 63 38 35 99 60 65 60 81 100 90 46 39 95 100 100 100 97 98 99 84 73 48 36 30 24 21 16 18 15 11 8 6 6 8 8
20 12 9 13 32 81 66 61 53 56 100 28 43 100 56 59 50 93 100 100 82 47 71 94 100 100 99 100 99 99 100 88 62 32 24 22 19 19 16 12 9 7 5 5 6
14 9 15 18 16 13 22 34 48 78 92 58 100 100 100 82 44 89 100 100 98 85 92 100 100 100 92 99 99 100 100 100 98 84 46 41 24 30 18 13 12 9 7 6 6
10 27 21 11 27 34 40 77 96 100 100 75 90 100 100 84 49 100 98 86 63 72 96 100 100 100 100 100 98 97 98 98 99 82 59 51 41 41 24 20 14 10 9 9 9
31 23 37 58 46 66 83 97 99 100 98 95 88 74 76 85 67 51 64 43 71 72 89 90 91 94 99 100 99 99 96 85 56 47 42 42 37 33 28 25 18 14 14 14 14
33 41 67 81 98 100 93 71 55 85 100 98 100 100 61 100 94 100 88 67 89 95 89 94 78 86 100 95 100 97 85 76 52 37 33 35 32 38 35 27 24 21 17 17 19
43 28 41 57 85 82 65 43 26 42 64 75 96 86 43 58 67 64 82 91 92 99 99 100 80 70 84 92 90 76 82 67 37 34 36 39 42 47 40 35 29 25 22 22 21
44 46 32 35 64 82 79 50 64 34 36 40 52 75 79 45 62 46 54 100 100 100 97 73 73 73 83 88 70 57 48 49 53 48 55 53 43 37 29 27 24 22 20 18 16
46 58 33 40 30 59 32 63 94 99 81 61 73 94 93 79 76 74 82 98 94 94 83 61 49 53 55 61 56 45 46 60 63 66 53 42 29 27 24 21 19 17 15 15 14
46 51 32 39 35 30 58 39 58 65 96 100 97 97 99 93 90 83 66 70 96 81 47 50 52 56 57 66 79 85 80 73 58 45 32 28 29 28 24 21 17 16 17 16 14
48 63 37 45 54 50 39 66 68 62 64 83 99 97 95 98 90 77 88 91 91 55 52 54 55 63 61 55 54 52 46 38 30 26 32 38 33 24 20 16 16 15 13 11 11
57 50 40 50 53 42 51 35 56 73 89 96 89 89 80 92 95 90 100 75 55 47 57 58 54 49 40 35 32 29 28 28 30 30 35 32 28 18 16 14 13 12 14 22 33
57 36 37 46 92 71 42 46 46 47 65 90 94 100 93 89 90 96 67 43 44 45 48 47 38 34 32 34 36 35 35 36 36 34 32 24 18 15 13 11 11 12 30 36 30
51 35 35 71 83 90 58 39 42 41 47 82 82 85 100 100 100 75 48 36 35 36 35 32 31 29 30 34 38 39 35 33 25 20 16 13 12 11 12 12 14 32 44 37 37